Regional Weather Roundup
Issued by NWS

Home | Current Version | Previous Version | Text Only | Print | Product List | Glossary On
Versions: 1 2 3 4 5 6 7 8 9 10 11 12 13 14 15 16 17 18 19 20 21 22 23 24 25 26 27 28 29 30 31 32 33 34 35 36 37 38 39 40 41 42 43 44 45 46 47 48 49 50
000
ASUS43 KTOP 270108
RWRKS

WEATHER ROUNDUP FOR KANSAS
NATIONAL WEATHER SERVICE GOODLAND KS
800 PM CDT SUN APR 26 2015

NOTE:  "FAIR" INDICATES FEW OR NO CLOUDS BELOW 12,000 FEET WITH NO
SIGNIFICANT WEATHER AND/OR OBSTRUCTIONS TO VISIBILITY.

KSZ001>006-013>018-027>032-041>047-270200-
NORTHWEST KANSAS

CITY           SKY/WX    TMP DP  RH WIND       PRES   REMARKS
GOODLAND       CLOUDY    45  44  97 E13       29.98R
HAYS           CLOUDY    48  37  66 E16       29.96R
HILL CITY      CLOUDY    50  42  74 E14       29.98R
RUSSELL        CLOUDY    50  44  80 E16G24    29.94R
$$

KSZ061>065-074>080-084>089-270200-
SOUTHWEST KANSAS

CITY           SKY/WX    TMP DP  RH WIND       PRES   REMARKS
DODGE CITY     CLOUDY    49  45  86 E16       29.92R FOG
ELKHART          N/A     47  42  83 E13         N/A
GARDEN CITY    CLOUDY    46  46 100 E14       29.92R FOG
GREAT BEND     CLOUDY    50  43  76 E16       29.93R
LIBERAL        CLOUDY    52  46  82 E7        29.92S
$$

KSZ066>073-081>083-090>101-270200-
SOUTHEAST KANSAS

CITY           SKY/WX    TMP DP  RH WIND       PRES   REMARKS
CHANUTE        MOCLDY    55  46  71 E9        29.90S
COFFEYVILLE    CLOUDY    53  46  77 NE17      29.86S
HUTCHINSON     CLOUDY    53  44  71 E12       29.91R
MEDICINE LODGE   N/A     53  47  79 NE14      29.88R
NEWTON         CLOUDY    54  43  66 E12       29.92R
PARSONS        MOCLDY    54  46  74 NE5       29.89R
WICHITA INTL   CLOUDY    53  44  71 E18       29.88R
WICHITA JABRA  CLOUDY    52  44  74 E15       29.88R
WICHITA MCCONL CLOUDY    53  44  73 E17G24    29.88R
WINFIELD       CLOUDY    55  46  71 NE17G26   29.85R
$$

KSZ007>012-019>026-033>040-048>060-102>105-270200-
NORTHEAST KANSAS

CITY           SKY/WX    TMP DP  RH WIND       PRES   REMARKS
CONCORDIA      CLOUDY    55  44  66 E7        29.97R
EMPORIA        MOCLDY    54  45  71 E12       29.92R
LAWRENCE       CLEAR     57  40  52 E8        29.96R
MANHATTAN      PTCLDY    57  45  64 E8        29.96R
MARYSVILLE     CLEAR     54  41  62 E6        29.96R
OLATHE IND     CLEAR     58  37  45 E9        29.96R
OLATHE EXE     CLEAR     58  36  43 E9        29.94R
SALINA         CLOUDY    56  44  64 NE8       29.94S
TOPEKA BILLARD CLEAR     59  40  49 E9        29.97R
TOPEKA FORBES  CLEAR     59  42  53 E8        29.95R
$$



USA.gov is the U.S. government's official web portal to all federal, state and local government web resources and services.